Location: N�rnberg
(49.4471°N, 11.0632°E)
Time: 19:11:31
(UTC+02:00)

BUGSAT 1 - Visible Passes

Search period start: 11 April 2026 00:00
Search period end: 21 April 2026 00:00
Orbit: 501 x 541 km, 98.0° (Epoch: 11 April)

Date Brightness Start Highest point End Pass type
(mag) Time Alt. Az. Time Alt. Az. Time Alt. Az.
11 Apr ? 00:51:37 13° NW 00:51:37 13° NW 00:52:11 10° NW visible
11 Apr ? 23:03:07 18° NE 23:03:07 18° NE 23:04:46 10° NNE visible
12 Apr ? 00:38:13 17° NW 00:38:13 17° NW 00:39:15 10° NNW visible
12 Apr ? 22:49:42 15° NE 22:49:42 15° NE 22:51:12 10° NNE visible
13 Apr ? 00:24:48 21° NNW 00:24:48 21° NNW 00:26:13 10° NNW visible
13 Apr ? 22:36:17 12° NE 22:36:17 12° NE 22:37:23 10° NNE visible
14 Apr ? 00:11:24 25° NNW 00:11:24 25° NNW 00:13:06 10° NNW visible
14 Apr ? 23:57:58 29° N 23:57:58 29° N 23:59:55 10° NNW visible
15 Apr ? 23:44:33 31° N 23:44:33 31° N 23:46:40 10° N visible
16 Apr ? 23:31:07 29° NNE 23:31:07 29° NNE 23:33:22 10° N visible
17 Apr ? 01:06:13 13° NW 01:06:13 13° NW 01:06:49 10° NW visible
17 Apr ? 23:17:41 25° NE 23:17:41 25° NE 23:19:59 10° N visible
18 Apr ? 00:52:47 17° NW 00:52:47 17° NW 00:53:59 10° NW visible
18 Apr ? 23:04:14 21° NE 23:04:14 21° NE 23:06:31 10° NNE visible
19 Apr ? 00:39:20 22° NW 00:39:20 22° NW 00:41:00 10° NNW visible
19 Apr ? 22:50:47 16° NE 22:50:47 16° NE 22:52:55 10° NNE visible
20 Apr ? 00:25:53 28° NW 00:25:53 28° NW 00:27:56 10° NNW visible
20 Apr ? 22:37:20 12° ENE 22:37:27 12° ENE 22:39:03 10° NNE visible
